Regional Weather Roundup
Issued by NWS

Home | Current Version | Previous Version | Graphics & Text | Print | Product List | Glossary On
Versions: 1 2 3 4 5 6 7 8 9 10 11 12 13 14 15 16 17 18 19 20 21 22 23 24 25 26 27 28
000
ASUS45 KBOI 282310
RWRID

IDAHO REGIONAL WEATHER ROUNDUP
NATIONAL WEATHER SERVICE BOISE ID
500 PM MDT THU APR 28 2016

NOTE: "FAIR" INDICATES FEW OR NO CLOUDS BELOW 12000 FEET
WITH NO SIGNIFICANT WEATHER AND/OR OBSTRUCTIONS TO VISIBILITY

IDZ012-014-290000-
SOUTHWEST IDAHO


CITY           SKY/WX    TMP DP  RH WIND       PRES   REMARKS
BOISE          SUNNY     67  32  27 NW25G35   29.78F
CALDWELL       SUNNY     67  35  30 NW20G26   29.82S
MOUNTAIN HOME  SUNNY     68  34  28 NW22G31   29.77F
$$

IDZ016-017-290000-
SOUTHCENTRAL IDAHO


CITY           SKY/WX    TMP DP  RH WIND       PRES   REMARKS
BURLEY         PTSUNNY   58  33  39 W7        29.79F
JEROME         PTSUNNY   61  36  39 SW15G22   29.81F
TWIN FALLS     MOSUNNY   59  35  40 W9        29.81F
$$

IDZ019>023-290000-
SOUTHEAST IDAHO


CITY           SKY/WX    TMP DP  RH WIND       PRES   REMARKS
IDAHO FALLS    CLOUDY    60  26  27 NW16      29.80S
POCATELLO      CLOUDY    58  30  34 N12       29.79R
REXBURG        CLOUDY    56  25  30 NE9       29.80S
$$

IDZ006-010-011-018-031-032-290000-
CENTRAL IDAHO MOUNTAINS


CITY           SKY/WX    TMP DP  RH WIND       PRES   REMARKS
MCCALL         CLOUDY    49  31  49 N8        29.89S
HAILEY         PTSUNNY   48  39  71 E13       29.84R
STANLEY          N/A     47  24  40 N6        29.88S
SALMON         CLOUDY    48  28  46 SE8       29.91S
CHALLIS        CLOUDY    51  26  37 NE10      29.86F
$$

IDZ002-004-006-007-026-290000-
NORTHERN IDAHO


CITY           SKY/WX    TMP DP  RH WIND       PRES   REMARKS
LEWISTON       CLOUDY    58  45  62 E14       29.94S
LOWELL           N/A     61  39  44 CALM      29.92F
COEUR D`ALENE  CLOUDY    63  36  36 NE12      29.92F
MULLAN PASS    CLOUDY    37  28  70 CALM      29.99R
$$




USA.gov is the U.S. government's official web portal to all federal, state and local government web resources and services.